Latest Weather Observations for Onslow Airport

IDW60801

Issued at 10:05 am WST Saturday 19 April 2014 (issued every 30 minutes, with the page automatically refreshed every 10 minutes)

About weather observations | Map of weather stations | Latest weather observations for WA | Other Formats
Station Details ID: 005017 Name: ONSLOW AIRPORT Lat: -21.67 Lon: 115.11 Height: 10.5 m
Data from the previous 72 hours. | See also: Recent months at Onslow Airport
Date/Time
WST
Temp
°C
App
Temp
°C
Dew
Point
Rel
Hum
%
Delta-T
°C
Wind Press
QNH
hPa
Press
MSL
hPa
Rain
since 9 am
mm
Dir
 
Spd
km/h
Gust
km/h
Spd
kts
Gust
kts
19/10:00am 34.7 30.4 5.2 16 15.8 SSE 17 20 9 11 1014.6 - 0.0
19/09:30am 32.7 29.7 6.1 19 14.3 SSE 11 13 6 7 1014.9 - 0.0
19/09:00am 29.7 28.6 10.8 31 10.8 ESE 7 9 4 5 1015.0 1014.9 0.0
19/08:30am 27.6 26.4 10.3 34 9.7 SE 7 9 4 5 1015.0 - 0.0
19/08:00am 25.3 24.4 11.5 42 7.8 S 7 11 4 6 1014.9 - 0.0
19/07:30am 23.6 22.4 11.6 47 6.8 S 9 11 5 6 1014.9 - 0.0
19/07:00am 21.1 19.1 10.3 50 5.9 SSE 11 11 6 6 1014.8 - 0.0
19/06:30am 20.7 18.7 10.2 51 5.7 SSE 11 13 6 7 1014.6 - 0.0
19/06:00am 20.9 19.3 11.5 55 5.2 SSE 11 13 6 7 1014.4 1014.3 0.0
19/05:30am 20.7 18.8 11.9 57 4.9 SSE 13 15 7 8 1014.3 - 0.0
19/05:00am 20.6 18.3 11.8 57 4.9 SSE 15 17 8 9 1014.5 - 0.0
19/04:30am 20.8 19.4 12.2 58 4.8 SSE 11 11 6 6 1014.5 - 0.0
19/04:00am 21.2 19.2 11.5 54 5.4 S 13 13 7 7 1014.6 - 0.0
19/03:30am 21.7 20.4 12.5 56 5.2 S 11 13 6 7 1014.6 - 0.0
19/03:00am 22.3 20.5 12.0 52 5.8 S 13 15 7 8 1014.8 1014.7 0.0
19/02:30am 22.9 21.7 11.6 49 6.3 S 9 11 5 6 1015.0 - 0.0
19/02:00am 23.1 22.1 13.3 54 5.7 S 11 13 6 7 1015.1 - 0.0
19/01:30am 23.2 23.0 14.7 58 5.0 SSW 9 11 5 6 1015.2 - 0.0
19/01:00am 23.5 23.2 14.5 57 5.3 SSW 9 9 5 5 1015.2 - 0.0
19/12:30am 24.1 23.0 14.2 54 5.8 SSW 13 15 7 8 1015.3 - 0.0
19/12:00am 24.0 23.5 15.8 60 5.0 SSW 13 17 7 9 1015.5 1015.4 0.0
 
Date/Time
WST
Temp
°C
App
Temp
°C
Dew
Point
Rel
Hum
%
Delta-T
°C
Wind Press
QNH
hPa
Press
MSL
hPa
Rain
since 9 am
mm
Dir
 
Spd
km/h
Gust
km/h
Spd
kts
Gust
kts
18/11:30pm 24.6 24.3 13.2 49 6.6 WSW 7 9 4 5 1015.3 - 0.0
18/11:00pm 25.3 25.1 13.5 48 6.9 WSW 7 9 4 5 1015.5 - 0.0
18/10:30pm 25.7 25.6 13.9 48 7.0 WSW 7 9 4 5 1015.7 - 0.0
18/10:00pm 25.5 25.7 14.6 51 6.5 WSW 7 7 4 4 1015.7 - 0.0
18/09:30pm 25.7 26.0 16.0 55 5.9 SW 9 13 5 7 1015.8 - 0.0
18/09:00pm 25.3 25.6 17.0 60 5.1 SW 11 13 6 7 1015.6 1015.5 0.0
18/08:30pm 26.4 26.6 17.7 58 5.5 WSW 13 15 7 8 1015.4 - 0.0
18/08:00pm 26.1 26.2 17.5 59 5.4 WSW 13 17 7 9 1015.2 - 0.0
18/07:30pm 26.8 26.4 16.1 52 6.6 W 13 15 7 8 1014.9 - 0.0
18/07:00pm 27.3 26.8 16.9 53 6.5 W 15 17 8 9 1014.5 - 0.0
18/06:30pm 28.0 29.2 20.0 61 5.2 W 13 17 7 9 1014.2 - 0.0
18/06:00pm 29.1 30.0 20.0 58 6.0 W 15 19 8 10 1013.9 1013.8 0.0
18/05:30pm 30.6 29.9 17.3 45 8.4 WNW 17 19 9 10 1013.6 - 0.0
18/05:00pm 31.8 31.1 17.3 42 9.2 NW 17 20 9 11 1013.2 - 0.0
18/04:30pm 32.5 31.1 15.5 36 10.6 NW 17 22 9 12 1013.1 - 0.0
18/04:00pm 34.1 30.0 8.0 20 14.6 NNW 19 24 10 13 1012.9 - 0.0
18/03:30pm 35.2 31.2 8.1 19 15.2 NW 19 24 10 13 1012.9 - 0.0
18/03:00pm 34.9 31.5 10.7 23 14.1 NW 19 24 10 13 1013.0 1012.9 0.0
18/02:30pm 34.7 31.5 11.2 24 13.8 WNW 19 26 10 14 1013.0 - 0.0
18/02:00pm 35.3 31.8 8.9 20 15.0 NW 17 24 9 13 1013.1 - 0.0
18/01:30pm 35.6 32.4 6.8 17 15.9 NW 13 19 7 10 1013.3 - 0.0
18/01:00pm 36.0 33.1 10.9 22 14.8 NNW 17 28 9 15 1013.8 - 0.0
18/12:30pm 36.3 33.6 7.4 17 16.2 N 11 17 6 9 1014.1 - 0.0
18/12:00pm 35.6 32.8 5.0 15 16.4 ENE 9 15 5 8 1014.4 1014.3 0.0
18/11:30am 35.3 33.4 6.6 17 15.8 ENE 6 11 3 6 1014.8 - 0.0
18/11:00am 33.7 31.3 6.9 19 14.7 ESE 9 11 5 6 1015.1 - 0.0
18/10:30am 32.6 30.3 7.4 21 13.8 ESE 9 13 5 7 1015.5 - 0.0
18/10:00am 31.2 30.1 10.5 28 11.9 ENE 7 11 4 6 1015.7 - 0.0
18/09:30am 29.6 28.0 11.6 33 10.4 ENE 11 13 6 7 1015.7 - 0.0
18/09:00am 28.3 26.9 12.2 37 9.3 ENE 11 13 6 7 1015.7 1015.6 0.0
18/08:30am 26.7 26.2 14.8 48 7.2 ENE 11 13 6 7 1015.7 - 0.0
18/08:00am 25.3 24.8 15.9 56 5.7 ENE 13 15 7 8 1015.5 - 0.0
18/07:30am 24.0 24.6 16.8 64 4.4 ENE 9 13 5 7 1015.1 - 0.0
18/07:00am 21.7 21.6 16.0 70 3.4 E 11 11 6 6 1014.7 - 0.0
18/06:30am 21.0 21.4 15.3 70 3.4 ESE 7 9 4 5 1014.6 - 0.0
18/06:00am 21.0 21.5 15.5 71 3.3 ESE 7 9 4 5 1014.4 1014.3 0.0
18/05:30am 21.5 22.0 15.6 69 3.5 ESE 7 9 4 5 1014.4 - 0.0
18/05:00am 22.2 22.6 15.3 65 4.1 S 7 9 4 5 1014.3 - 0.0
18/04:30am 22.1 21.7 15.2 65 4.1 S 11 13 6 7 1014.3 - 0.0
18/04:00am 21.9 22.2 16.0 69 3.6 S 9 11 5 6 1014.2 - 0.0
18/03:30am 22.3 21.9 16.3 69 3.6 S 13 15 7 8 1014.4 - 0.0
18/03:00am 22.6 22.7 16.4 68 3.8 SSW 11 13 6 7 1014.5 1014.4 0.0
18/02:30am 23.1 22.9 16.6 67 4.0 SSW 13 15 7 8 1014.6 - 0.0
18/02:00am 23.9 23.0 16.9 65 4.3 SSW 17 19 9 10 1014.9 - 0.0
18/01:30am 23.2 23.7 17.4 70 3.6 SSW 11 13 6 7 1015.0 - 0.0
18/01:00am 23.3 23.8 18.4 74 3.1 SSW 13 15 7 8 1015.3 - 0.0
18/12:30am 23.3 23.6 18.0 72 3.3 SW 13 15 7 8 1015.6 - 0.0
18/12:00am 23.3 23.6 17.1 68 3.8 SW 11 13 6 7 1015.8 1015.7 0.0
 
Date/Time
WST
Temp
°C
App
Temp
°C
Dew
Point
Rel
Hum
%
Delta-T
°C
Wind Press
QNH
hPa
Press
MSL
hPa
Rain
since 9 am
mm
Dir
 
Spd
km/h
Gust
km/h
Spd
kts
Gust
kts
17/11:30pm 23.1 23.5 18.2 74 3.1 SW 13 15 7 8 1016.0 - 0.0
17/11:00pm 23.1 24.2 18.0 73 3.2 WSW 9 11 5 6 1016.0 - 0.0
17/10:30pm 24.4 25.3 19.2 73 3.3 WSW 13 13 7 7 1016.1 - 0.0
17/10:00pm 24.5 25.1 17.7 66 4.2 WSW 11 13 6 7 1016.0 - 0.0
17/09:30pm 24.8 25.1 17.8 65 4.4 SW 13 17 7 9 1015.9 - 0.0
17/09:00pm 25.4 25.7 17.8 62 4.8 WSW 13 15 7 8 1015.7 1015.6 0.0
17/08:30pm 25.4 25.2 16.8 59 5.3 WSW 13 15 7 8 1015.6 - 0.0
17/08:00pm 26.4 26.0 16.3 53 6.2 WSW 13 15 7 8 1015.2 - 0.0
17/07:30pm 26.7 26.6 16.0 52 6.6 W 11 13 6 7 1014.8 - 0.0
17/07:00pm 27.2 26.7 13.9 44 7.9 WNW 9 11 5 6 1014.6 - 0.0
17/06:30pm 28.0 27.6 16.3 49 7.2 W 13 15 7 8 1014.4 - 0.0
17/06:00pm 29.4 29.1 18.2 51 7.2 W 17 20 9 11 1013.9 1013.8 0.0
17/05:30pm 31.3 27.3 10.6 28 11.9 N 22 28 12 15 1013.2 - 0.0
17/05:00pm 32.4 27.6 7.3 21 13.7 N 22 28 12 15 1013.1 - 0.0
17/04:30pm 33.2 28.5 7.9 21 14.0 N 22 30 12 16 1012.9 - 0.0
17/04:00pm 33.7 28.6 7.6 20 14.5 NNW 24 30 13 16 1012.7 - 0.0
17/03:30pm 34.3 29.0 4.9 16 15.6 NNW 22 28 12 15 1012.7 - 0.0
17/03:00pm 34.6 29.0 1.1 12 16.8 NNW 20 30 11 16 1012.8 1012.7 0.0
17/02:30pm 34.6 30.8 9.8 22 14.3 NW 20 28 11 15 1013.1 - 0.0
17/02:00pm 34.8 31.6 11.9 25 13.6 NW 20 30 11 16 1013.2 - 0.0
17/01:30pm 34.3 30.8 10.8 24 13.7 NW 20 28 11 15 1013.3 - 0.0
17/01:00pm 34.7 30.6 7.7 19 15.1 N 19 26 10 14 1013.6 - 0.0
17/12:30pm 35.2 32.5 8.9 20 15.0 N 13 24 7 13 1014.1 - 0.0
17/12:00pm 34.1 32.4 10.0 23 13.9 ENE 9 15 5 8 1014.7 1014.6 0.0
17/11:30am 34.4 33.0 12.1 26 13.3 ENE 11 15 6 8 1015.2 - 0.0
17/11:00am 32.6 32.0 12.3 29 12.0 E 7 11 4 6 1015.6 - 0.0
17/10:30am 31.7 31.5 15.6 37 10.0 E 11 15 6 8 1016.0 - 0.0
17/10:00am 30.8 31.1 17.1 43 8.7 SE 11 15 6 8 1016.1 - 0.0
17/09:30am 29.6 30.5 19.3 54 6.7 E 13 17 7 9 1016.1 - 0.0
17/09:00am 28.0 29.0 20.3 63 5.1 E 15 17 8 9 1016.0 1015.9 0.0
17/08:30am 26.5 27.1 20.3 68 4.1 E 17 20 9 11 1015.8 - 0.0
17/08:00am 25.0 26.5 20.5 76 2.9 E 13 17 7 9 1015.6 - 0.0
17/07:30am 23.4 25.3 20.5 84 1.9 E 11 13 6 7 1015.3 - 0.0
17/07:00am 21.9 23.4 19.8 88 1.3 E 11 13 6 7 1014.9 - 0.0
17/06:30am 21.6 23.5 19.0 85 1.6 E 7 9 4 5 1014.8 - 0.0
17/06:00am 21.1 22.5 17.7 81 2.1 S 7 11 4 6 1014.6 1014.5 0.0
17/05:30am 21.9 22.8 18.5 81 2.1 SW 11 13 6 7 1014.4 - 0.0
17/05:00am 22.2 22.8 17.8 76 2.7 WSW 11 15 6 8 1014.2 - 0.0
17/04:30am 23.6 23.9 18.7 74 3.1 WSW 15 19 8 10 1014.1 - 0.0
17/04:00am 24.2 24.1 18.8 72 3.4 WSW 17 19 9 10 1014.2 - 0.0
17/03:30am 23.0 23.9 18.5 76 2.8 WSW 11 13 6 7 1014.3 - 0.0
17/03:00am 23.1 24.0 19.3 79 2.4 WSW 13 15 7 8 1014.4 1014.3 0.0
17/02:30am 22.7 23.9 19.1 80 2.3 W 11 13 6 7 1014.7 - 0.0
17/02:00am 22.7 24.3 19.1 80 2.3 W 9 11 5 6 1014.7 - 0.0
17/01:30am 22.6 23.1 18.4 77 2.6 W 13 15 7 8 1014.7 - 0.0
17/01:00am 23.5 24.2 18.8 75 3.0 WSW 13 15 7 8 1014.8 - 0.0
17/12:30am 22.9 23.8 18.4 76 2.8 SW 11 13 6 7 1014.9 - 0.0
17/12:00am 23.7 24.3 18.6 73 3.2 SW 13 15 7 8 1015.1 1015.0 0.0
 
Date/Time
WST
Temp
°C
App
Temp
°C
Dew
Point
Rel
Hum
%
Delta-T
°C
Wind Press
QNH
hPa
Press
MSL
hPa
Rain
since 9 am
mm
Dir
 
Spd
km/h
Gust
km/h
Spd
kts
Gust
kts
16/11:30pm 25.2 26.0 19.1 69 3.9 W 13 15 7 8 1015.3 - 0.0
16/11:00pm 24.6 25.7 18.8 70 3.7 W 11 13 6 7 1015.4 - 0.0
16/10:30pm 25.2 26.2 18.6 67 4.2 NW 11 13 6 7 1015.2 - 0.0
16/10:00pm 25.6 26.4 19.0 67 4.2 NNW 13 15 7 8 1015.1 - 0.0
16/09:30pm 25.6 26.9 19.3 68 4.0 NW 11 13 6 7 1015.1 - 0.0
16/09:00pm 26.0 27.3 19.2 66 4.4 NW 11 13 6 7 1015.2 1015.1 0.0
16/08:30pm 26.1 27.5 19.5 67 4.3 WNW 11 13 6 7 1015.0 - 0.0
16/08:00pm 26.3 27.4 19.7 67 4.3 WNW 13 15 7 8 1014.6 - 0.0
16/07:30pm 26.2 27.3 18.8 63 4.7 W 11 15 6 8 1014.3 - 0.0
16/07:00pm 27.1 27.8 18.9 61 5.3 W 13 15 7 8 1013.9 - 0.0
16/06:30pm 27.7 28.6 19.2 60 5.5 W 13 17 7 9 1013.7 - 0.0
16/06:00pm 28.7 28.1 17.6 51 7.0 NW 17 22 9 12 1013.3 1013.2 0.0
16/05:30pm 30.0 27.6 15.3 41 9.0 NNW 22 26 12 14 1012.7 - 0.0
16/05:00pm 31.2 27.9 13.9 35 10.5 N 24 32 13 17 1012.6 - 0.0
16/04:30pm 31.6 27.3 11.9 30 11.6 N 26 33 14 18 1012.4 - 0.0
16/04:00pm 32.2 27.1 9.1 24 13.0 N 26 33 14 18 1012.3 - 0.0
16/03:30pm 32.7 29.6 13.4 31 11.6 NNW 22 33 12 18 1012.3 - 0.0
16/03:00pm 33.0 28.2 11.5 27 12.6 NNW 28 32 15 17 1012.3 1012.2 0.0
16/02:30pm 33.2 29.2 11.7 27 12.7 N 24 32 13 17 1012.5 - 0.0
16/02:00pm 34.0 29.3 9.3 22 14.1 N 24 32 13 17 1012.6 - 0.0
16/01:30pm 33.4 28.9 10.1 24 13.4 NNW 24 32 13 17 1013.0 - 0.0
16/01:00pm 34.3 29.1 7.4 19 14.9 N 24 35 13 19 1013.4 - 0.0
16/12:30pm 34.4 29.3 5.8 17 15.4 N 22 30 12 16 1013.9 - 0.0
16/12:00pm 34.5 29.8 5.9 17 15.5 NNE 20 28 11 15 1014.4 1014.3 0.0
16/11:30am 34.2 28.8 6.5 18 15.1 NNE 24 32 13 17 1014.9 - 0.0
16/11:00am 34.4 29.5 6.7 18 15.2 NE 22 32 12 17 1015.5 - 0.0
16/10:30am 34.0 28.8 5.5 17 15.3 ENE 22 32 12 17 1015.8 - 0.0

Other Formats:

Comma delimited format used in spreadsheet applications
http://www.bom.gov.au/fwo/IDW60801/IDW60801.95305.axf

JavaScript Object Notation format (JSON) in row-major order
http://www.bom.gov.au/fwo/IDW60801/IDW60801.95305.json